High Desert Yearling Classic - South Hills

Station: South Hills 15 Miles - T Race

Distance: 15 Miles

Release: 20-Apr-2017 11:45

Weather Release:    Arrival:

Wind at Release:     Wind at Arrival:

Temp at Release: °    Temp at Arrival: °

Lofts: 79

Birds: 290

Clocked: 256

Good Luck to Everyone!
Drops Pos Breeder Pigeon Name Color Sex Ent Arrival Speed To Win Eligible
1 Empire Classic 3861-IF16-EMPI BB C 1 12:05:11.00 1308.010 00:00:00 Yes
2 Baldwin & Tilson 6370-AU16-TENT BB H 1 12:05:19.00 1299.426 00:00:07 Yes
3 J I L 0880-AU16-DADO " Hoo-Lee-Kah-Bal-Bone " BC C 1 12:05:30.00 1287.805 00:00:18 Yes
3 Chen Loft 0077-IF16-LU BB H 1 12:05:30.00 1287.805 00:00:18 Yes
5 Boek-Hansen 36641-AU16-AA SLT H 1 12:05:35.00 1282.591 00:00:24 Yes
6 Thunder Birds Breeding Loft 21687-AU16-ARPU Shalom DC C 1 12:05:37.00 1280.517 00:00:26 Yes
7 Nanez Family Lofts 6939-AU16-NANZ BB C 1 12:05:39.00 1278.450 00:00:28 Yes
8 Bert Bruno 0965-IF16-NWC BC C 1 12:05:40.00 1277.419 00:00:29 Yes
9 Frank Locante 16036-AU16-FRLO BBWF H 1 12:05:42.00 1275.362 00:00:31 Yes
10 Sam Haslem 0098-AU16-SAM RC C 1 12:05:45.00 1272.289 00:00:34 Yes
10 Gina's Loft 55482-AU16-ARPU 77X00 GRZ H 1 12:05:45.00 1272.289 00:00:34 Yes
12 Hammon Racing & Bk 0058-AU16-DWI BB H 1 12:05:48.00 1269.231 00:00:36 Yes
13 Evolution Racing 2595-AU16-OGN DC C 1 12:05:51.00 1266.187 00:00:40 Yes
14 Donald Johnson 0895-AU16-NB BB H 1 12:05:54.00 1263.158 00:00:42 Yes
15 Rangel/Flores/Fregos 1761-AU16-WFA BC C 1 12:05:56.00 1261.146 00:00:45 Yes
16 Stella Loft 48087-AU16-AA BB H 1 12:06:00.00 1257.143 00:00:48 Yes
17 Richard Callahan 43066-AU16-AA BC H 1 12:06:01.00 1256.146 00:00:49 Yes
18 Joe Zarachowicz 1327-IF16-CCC BB C 1 12:06:03.00 1254.157 00:00:51 Yes
19 Life Loft 28287-AU16-JEDD Star Creator BB C 1 12:06:05.00 1252.174 00:00:53 Yes
19 Chen Loft 0467-AU16-TFC BC C 2 12:06:05.00 1252.174 00:00:53 Yes
21 Dave Naylor 0269-CU16-PMTN BB C 1 12:06:06.00 1251.185 00:00:54 Yes
22 High Plains Drifter Loft 6905-AU16-NCF BC C 1 12:06:11.00 1246.263 00:00:59 Yes
22 Scott Mc Callister 20378-AU16-FOYS BBWF H 1 12:06:11.00 1246.263 00:00:59 Yes
22 Hi-Cal Connection 0715-AU16-HICA BB H 1 12:06:11.00 1246.263 00:00:59 Yes
25 Pelican Loft 1513-AU16-IDA BB H 1 12:06:12.00 1245.283 00:01:01 Yes
26 Hi-Cal Connection 0739-AU16-HICA BB H 2 12:06:15.00 1242.353 00:01:04 Yes
27 Kreager Loft 42231-IF16-E BB H 1 12:06:16.00 1241.379 00:01:05 Yes
28 Stevens Family Loft Syndicate 0749-AU16-DWI BB H 1 12:06:19.00 1238.468 00:01:07 Yes
29 Danny Lum 6861-AU16-HIC BC H 1 12:06:21.00 1236.534 00:01:10 Yes
30 Lonkey Lofts 3452-AU16-WII BC C 1 12:06:24.00 1233.645 00:01:12 Yes
31 Dick & Marty Lee 1599-AU16-IDA BB C 1 12:06:28.00 1229.814 00:01:16 Yes
32 Twin Loft & Joe 61623-IF16-BWI Big Joey BCPD C 1 12:06:32.00 1226.006 00:01:21 Yes
33 Silver Dollar Loft 0113-AU16-SD BCWF H 1 12:06:34.00 1224.111 00:01:23 Yes
34 High Plains Drifter Loft 6907-AU16-NCF BB H 2 12:06:36.00 1222.222 00:01:25 Yes
35 Kwan Loft 34091-AU16-JEDD BBWF C 1 12:06:38.00 1220.339 00:01:27 Yes
35 Dream Team 0810-IF16-FVC BB C 1 12:06:38.00 1220.339 00:01:27 Yes
37 E M C Syndicate 0665-AU16-EMC DC H 1 12:06:40.00 1218.462 00:01:28 Yes
38 Peter Truong 16571-AU16-ARPU BC C 1 12:06:41.00 1217.525 00:01:30 Yes
38 Lonkey Lofts 3488-AU16-WII BB C 2 12:06:41.00 1217.525 00:01:30 Yes
40 Heritage Loft 87772-AU16-ARPU BB H 1 12:06:43.00 1215.656 00:01:32 Yes
41 Chen Loft 0459-AU16-TFC BB C 3 12:06:47.00 1211.936 00:01:35 Yes
42 Western Loft 1576-AU16-SFR BB H 1 12:06:49.00 1210.084 00:01:38 Yes
43 Bob Lehman 0985-IF16-PGC BCWF H 1 12:06:50.00 1209.160 00:01:39 Yes
44 Adirondack Team 67356-AU16-ARPU DC C 1 12:06:52.00 1207.317 00:01:41 Yes
44 Joe Zarachowicz 1358-IF16-CCC DC H 2 12:06:52.00 1207.317 00:01:41 Yes
44 Christensen & Stevens 0951-AU16-DWI BB H 1 12:06:52.00 1207.317 00:01:41 Yes
47 Mike Beam 60745-AU16-TOP BLK H 1 12:06:54.00 1205.479 00:01:43 Yes
48 Mc Laughlin Lofts 0554-AU16-MCLO BC H 1 12:06:58.00 1201.821 00:01:47 Yes
49 Ganus Family Loft 0975-AU16-GFL BB H 1 12:06:59.00 1200.910 00:01:47 Yes
50 Stella Loft 48089-AU16-AA BC H 2 12:07:00.00 1200.000 00:01:49 Yes
51 Eagle Ridge Lofts 16082-AU16-EAGL DC H 1 12:07:01.00 1199.092 00:01:49 Yes
52 Baldwin & Tilson 6378-AU16-TENT BB H 2 12:07:03.00 1197.279 00:01:51 Yes
53 Ganus Family Loft 0615-AU16-GFL BB H 2 12:07:06.00 1194.570 00:01:55 Yes
54 Scott/Carol Team 0256-AU16-DWI BB H 1 12:07:07.00 1193.670 00:01:56 Yes
54 Richard Callahan 1400-AU16-AA BB C 2 12:07:07.00 1193.670 00:01:56 Yes
56 Sonny Loft 1419-AU16-CHI Charlottes Web BC H 1 12:07:11.00 1190.083 00:01:59 Yes
57 Chen Loft 0333-AU16-TFC BBWF H 4 12:07:12.00 1189.189 00:02:01 Yes
58 Cantere-Lum 6756-AU16-HIC BB C 1 12:07:14.00 1187.406 00:02:03 Yes
59 Danny Lum 6759-AU16-HIC BB H 2 12:07:19.00 1182.972 00:02:08 Yes
60 Chick Clayton 0650-AU16-IDA BBWF H 1 12:07:20.00 1182.090 00:02:08 Yes
61 Cantere-Lum 6753-AU16-HIC BBPN C 2 12:07:27.00 1175.947 00:02:15 Yes
62 Bert Bruno 0996-IF16-NWC BC H 2 12:07:29.00 1174.203 00:02:18 Yes
63 Ganus Family Loft 0983-AU16-GFL BC C 3 12:07:35.00 1169.004 00:02:23 Yes
64 Western Loft 0092-AU16-GREE PDWF H 2 12:07:38.00 1166.421 00:02:27 Yes
65 J I L 0881-AU16-DADO " Im All You Need " BB H 2 12:07:41.00 1163.850 00:02:30 Yes
66 Joe Zarachowicz 1336-IF16-CCC GRZ C 3 12:07:43.00 1162.142 00:02:32 Yes
67 Chick Clayton 0617-AU16-IDA BB C 2 12:07:44.00 1161.290 00:02:33 Yes
68 Hi-Cal Connection 0730-AU16-HICA BC H 3 12:08:02.00 1146.165 00:02:51 Yes
69 Scott/Carol Team 0250-AU16-DWI BB C 2 12:08:06.00 1142.857 00:02:55 Yes
70 Richard Callahan 43068-AU16-AA BB H 3 12:08:14.00 1136.298 00:03:03 Yes
71 El Dorado Lofts Canada 15148-CU16-CU DCPD C 1 12:08:54.00 1104.603 00:03:42 Yes
72 Danny Lum 6781-AU16-HIC BB H 3 12:08:55.00 1103.833 00:03:43 Yes
73 Silver Dollar Loft 0116-AU16-SD BCWF C 2 12:08:56.00 1103.064 00:03:45 Yes
74 Jose Rangel 0093-AU16-MIDW BB H 1 12:08:57.00 1102.296 00:03:46 Yes
75 Only One No1 0057-IF16-BID DC C 1 12:09:00.00 1100.000 00:03:49 Yes
76 Bert Bruno 24633-AU16-FOYS BC C 3 12:09:01.00 1099.237 00:03:49 Yes
76 Baldwin & Tilson 6385-AU16-TENT BB C 3 12:09:01.00 1099.237 00:03:49 Yes
78 Larry Kidd 0016-AU16-4US DC C 1 12:09:03.00 1097.713 00:03:52 Yes
79 Chen Loft 0091-IF16-LU BC H 5 12:09:07.00 1094.679 00:03:55 Yes
80 Only One No1 0039-IF16-BID BB C 2 12:10:38.00 1029.909 00:05:27 Yes
81 Larry Kidd 0040-AU16-4US RC C 2 12:10:47.00 1023.917 00:05:36 Yes
82 Silicon Valley Syndicate 1728-AU16-WSJ BB H 1 12:14:07.00 906.697 00:08:56 Yes
83 Chen Loft 0099-IF16-LU BB C 6 12:14:09.00 905.660 00:08:58 Yes
84 Empire Classic 3870-IF16-EMPI BB H 2 12:14:11.00 904.626 00:08:59 Yes
85 Joe Zarachowicz 1354-IF16-CCC BB C 4 12:14:15.00 902.564 00:09:04 Yes
85 Peter Truong 16572-AU16-ARPU BBWF C 2 12:14:15.00 902.564 00:09:04 Yes
87 D & L Lofts 16113-CU16-CU BB H 1 12:14:17.00 901.537 00:09:05 Yes
88 Christensen & Stevens 0768-AU16-DWI BLK C 2 12:14:19.00 900.512 00:09:07 Yes
89 Rory Smith 6104-AU16-CDR BC H 1 12:14:20.00 900.000 00:09:09 Yes
89 Life Loft 28274-AU16-JEDD McBieche BCWF H 2 12:14:20.00 900.000 00:09:09 Yes
91 Silvercreek Loft 1704-CU16-SC BBWF C 1 12:14:21.00 899.489 00:09:09 Yes
92 Evolution Racing 2959-AU16-OGN BC H 2 12:14:22.00 898.978 00:09:11 Yes
92 Jones Boys 6984-AU16-SLI BC C 1 12:14:22.00 898.978 00:09:11 Yes
92 Kwan Loft 0670-AU16-KWAN BB C 2 12:14:22.00 898.978 00:09:11 Yes
95 Chen Loft 0458-AU16-TFC BC C 7 12:14:23.00 898.469 00:09:11 Yes
96 Racing Pigeon Mall 0639-AU16-RPM BLK C 1 12:14:24.00 897.959 00:09:13 Yes
97 Silver Dollar Loft 0111-AU16-SD WHT H 3 12:14:27.00 896.435 00:09:15 Yes
98 Dave Dudley 16145-AU16-PUEB BB C 1 12:14:31.00 894.410 00:09:19 Yes
99 Mc Laughlin Lofts 0584-AU16-MCLO BB H 2 12:14:32.00 893.905 00:09:21 Yes
100 Adirondack Team 67354-AU16-ARPU BBPD C 2 12:14:34.00 892.897 00:09:23 Yes

There are 290 bird records

Note: These Race Results are unofficial and subject to change until verified by the Race Committee and declared final.

Click for forecast!